Tracking 19562 objects as of 22-Mar-2019
HD Live streaming from Space Station
objects crossing your sky now

COSMOS 926

Track COSMOS 926 now!
10-day predictions
COSMOS 926 is classified as:


NORAD ID: 10137
Int'l Code: 1977-062A
Perigee: 973.8 km
Apogee: 1,023.0 km
Inclination: 82.9 °
Period: 104.9 minutes
Semi major axis: 7369 km
RCS: 1.8159 m2 (large)
Launch date: July 8, 1977
Source: Commonwealth of Independent States (former USSR) (CIS)
Launch site: PLESETSK MISSILE AND SPACE COMPLEX (PKMTR)
aabbcc
Your satellite tracking list
Your tracking list is empty




NASA's NSSDC Master Catalog

Two Line Element Set (TLE):
1 10137U 77062A   19079.67901416  .00000045  00000-0  32218-4 0  9993
2 10137  82.9438 159.1197 0033349 154.0904 358.2067 13.72311326 87786
Source of the keplerian elements: AFSPC